TimeCST,TemperatureF,Dew PointF,Humidity,Sea Level PressureIn,VisibilityMPH,Wind Direction,Wind SpeedMPH,Gust SpeedMPH,PrecipitationIn,Events,Conditions,WindDirDegrees,DateUTC
12:15 AM,45.7,42.8,90,30.16,7.0,NW,4.6,-,N/A,,Overcast,310,2012-11-08 06:15:00
12:35 AM,44.8,42.3,91,30.16,7.0,NW,3.5,-,N/A,,Mostly Cloudy,310,2012-11-08 06:35:00
12:55 AM,43.3,41.5,93,30.17,7.0,Calm,Calm,-,N/A,,Scattered Clouds,0,2012-11-08 06:55:00
1:15 AM,42.1,41.5,98,30.17,5.0,Calm,Calm,-,N/A,,Scattered Clouds,0,2012-11-08 07:15:00
1:35 AM,41.2,40.8,99,30.18,5.0,Calm,Calm,-,N/A,,Scattered Clouds,0,2012-11-08 07:35:00
1:55 AM,39.2,38.8,99,30.19,4.0,Calm,Calm,-,N/A,,Mostly Cloudy,0,2012-11-08 07:55:00
2:15 AM,40.6,40.6,100,30.20,4.0,Calm,Calm,-,N/A,,Overcast,0,2012-11-08 08:15:00
2:35 AM,41.0,41.0,100,30.20,4.0,Calm,Calm,-,N/A,,Overcast,0,2012-11-08 08:35:00
2:55 AM,41.9,41.7,99,30.20,5.0,Calm,Calm,-,N/A,,Overcast,0,2012-11-08 08:55:00
3:15 AM,41.4,41.4,100,30.21,4.0,Calm,Calm,-,N/A,,Overcast,0,2012-11-08 09:15:00
3:35 AM,41.2,41.0,99,30.21,5.0,Calm,Calm,-,N/A,,Overcast,0,2012-11-08 09:35:00
3:55 AM,41.2,41.0,99,30.21,4.0,Calm,Calm,-,N/A,,Overcast,0,2012-11-08 09:55:00
4:15 AM,41.4,41.2,99,30.22,4.0,Calm,Calm,-,N/A,,Overcast,0,2012-11-08 10:15:00
4:35 AM,39.7,39.6,99,30.22,4.0,Calm,Calm,-,N/A,,Scattered Clouds,0,2012-11-08 10:35:00
4:55 AM,39.4,39.4,100,30.22,3.0,Calm,Calm,-,N/A,,Clear,0,2012-11-08 10:55:00
5:15 AM,40.1,40.1,100,30.23,3.0,Calm,Calm,-,N/A,,Clear,0,2012-11-08 11:15:00
5:35 AM,37.9,37.9,100,30.22,3.0,Calm,Calm,-,N/A,,Clear,0,2012-11-08 11:35:00
5:55 AM,36.0,36.0,100,30.22,1.5,Calm,Calm,-,N/A,,Mist,0,2012-11-08 11:55:00
6:15 AM,35.8,35.8,100,30.24,1.8,Calm,Calm,-,N/A,,Mostly Cloudy,0,2012-11-08 12:15:00
6:55 AM,35.2,35.2,100,30.25,0.2,Calm,Calm,-,N/A,Fog,Fog,0,2012-11-08 12:55:00
7:15 AM,35.4,35.4,100,30.26,0.2,Calm,Calm,-,N/A,Fog,Fog,0,2012-11-08 13:15:00
7:35 AM,37.6,37.6,100,30.26,0.2,Calm,Calm,-,N/A,Fog,Fog,0,2012-11-08 13:35:00
7:55 AM,40.5,40.5,100,30.27,3.0,Calm,Calm,-,N/A,,Scattered Clouds,0,2012-11-08 13:55:00
8:15 AM,43.3,43.3,100,30.27,3.0,Calm,Calm,-,N/A,,Clear,0,2012-11-08 14:15:00
8:35 AM,45.0,44.1,97,30.27,5.0,Calm,Calm,-,N/A,,Clear,0,2012-11-08 14:35:00
8:55 AM,46.6,43.9,90,30.28,5.0,Calm,Calm,-,N/A,,Clear,0,2012-11-08 14:55:00
9:15 AM,47.7,44.4,89,30.28,5.0,Calm,Calm,-,N/A,,Clear,0,2012-11-08 15:15:00
9:35 AM,49.1,43.9,82,30.29,7.0,Calm,Calm,-,N/A,,Clear,0,2012-11-08 15:35:00
9:55 AM,49.5,43.3,79,30.29,7.0,Calm,Calm,-,N/A,,Clear,0,2012-11-08 15:55:00
10:15 AM,50.5,42.6,74,30.28,10.0,Calm,Calm,-,N/A,,Clear,0,2012-11-08 16:15:00
10:35 AM,51.6,41.7,69,30.28,10.0,Calm,Calm,-,N/A,,Clear,0,2012-11-08 16:35:00
10:55 AM,53.2,41.9,65,30.27,10.0,Calm,Calm,-,N/A,,Mostly Cloudy,0,2012-11-08 16:55:00
11:15 AM,54.0,41.7,63,30.26,10.0,Calm,Calm,-,N/A,,Overcast,0,2012-11-08 17:15:00
11:35 AM,54.5,41.7,62,30.25,10.0,WSW,6.9,-,N/A,,Mostly Cloudy,240,2012-11-08 17:35:00
11:55 AM,54.5,41.2,61,30.25,10.0,SW,5.8,-,N/A,,Scattered Clouds,220,2012-11-08 17:55:00
12:15 PM,55.9,41.0,57,30.24,10.0,WSW,6.9,-,N/A,,Mostly Cloudy,240,2012-11-08 18:15:00
12:35 PM,55.4,40.3,57,30.23,10.0,West,5.8,-,N/A,,Mostly Cloudy,270,2012-11-08 18:35:00
12:55 PM,55.9,40.6,56,30.21,10.0,SSW,3.5,-,N/A,,Scattered Clouds,200,2012-11-08 18:55:00
1:15 PM,56.3,40.3,55,30.21,10.0,SW,4.6,-,N/A,,Clear,230,2012-11-08 19:15:00
1:35 PM,55.8,39.6,55,30.20,10.0,Calm,Calm,-,N/A,,Clear,0,2012-11-08 19:35:00
1:55 PM,56.3,40.3,55,30.20,10.0,WSW,5.8,-,N/A,,Clear,240,2012-11-08 19:55:00
2:15 PM,56.5,40.6,55,30.20,10.0,SW,3.5,-,N/A,,Clear,220,2012-11-08 20:15:00
2:35 PM,56.7,41.0,56,30.20,10.0,West,3.5,-,N/A,,Clear,280,2012-11-08 20:35:00
2:55 PM,56.8,40.6,55,30.19,10.0,West,4.6,-,N/A,,Clear,260,2012-11-08 20:55:00
3:15 PM,56.5,40.3,55,30.19,10.0,Calm,Calm,-,N/A,,Clear,0,2012-11-08 21:15:00
3:35 PM,56.5,40.1,54,30.19,10.0,Calm,Calm,-,N/A,,Clear,0,2012-11-08 21:35:00
3:55 PM,56.3,40.3,55,30.19,10.0,Calm,Calm,-,N/A,,Clear,0,2012-11-08 21:55:00
4:15 PM,55.9,40.1,55,30.18,10.0,Calm,Calm,-,N/A,,Clear,0,2012-11-08 22:15:00
4:35 PM,54.5,40.5,59,30.18,2.0,Calm,Calm,-,N/A,,Haze,0,2012-11-08 22:35:00
4:55 PM,52.9,40.6,63,30.18,0.2,Calm,Calm,-,N/A,,Haze,0,2012-11-08 22:55:00
5:15 PM,49.8,40.5,70,30.18,2.5,Calm,Calm,-,N/A,,Haze,0,2012-11-08 23:15:00
5:35 PM,48.7,40.3,73,30.18,2.5,Calm,Calm,-,N/A,,Haze,0,2012-11-08 23:35:00
5:55 PM,46.4,39.4,77,30.19,4.0,SSW,3.5,-,N/A,,Haze,200,2012-11-08 23:55:00
6:15 PM,46.9,39.9,77,30.19,10.0,SSW,3.5,-,N/A,,Clear,210,2012-11-09 00:15:00
6:35 PM,46.4,40.1,79,30.19,10.0,Calm,Calm,-,N/A,,Clear,0,2012-11-09 00:35:00
6:55 PM,44.8,39.4,81,30.19,10.0,Calm,Calm,-,N/A,,Clear,0,2012-11-09 00:55:00
7:15 PM,43.2,39.2,86,30.18,10.0,Calm,Calm,-,N/A,,Clear,0,2012-11-09 01:15:00
7:35 PM,42.3,39.0,88,30.18,10.0,Calm,Calm,-,N/A,,Clear,0,2012-11-09 01:35:00
7:55 PM,42.6,38.7,86,30.19,10.0,Calm,Calm,-,N/A,,Clear,0,2012-11-09 01:55:00
8:15 PM,40.8,38.7,92,30.19,10.0,Calm,Calm,-,N/A,,Clear,0,2012-11-09 02:15:00
8:35 PM,41.9,39.0,90,30.19,10.0,Calm,Calm,-,N/A,,Clear,0,2012-11-09 02:35:00
8:55 PM,40.3,38.1,92,30.19,10.0,Calm,Calm,-,N/A,,Clear,0,2012-11-09 02:55:00
9:15 PM,40.1,37.4,90,30.19,10.0,Calm,Calm,-,N/A,,Clear,0,2012-11-09 03:15:00
9:35 PM,40.1,38.1,93,30.19,10.0,Calm,Calm,-,N/A,,Clear,0,2012-11-09 03:35:00
9:55 PM,38.5,37.4,96,30.18,7.0,Calm,Calm,-,N/A,,Clear,0,2012-11-09 03:55:00
10:15 PM,37.6,36.9,97,30.17,7.0,Calm,Calm,-,N/A,,Clear,0,2012-11-09 04:15:00
10:35 PM,37.8,37.2,98,30.17,7.0,Calm,Calm,-,N/A,,Clear,0,2012-11-09 04:35:00
10:55 PM,37.6,37.0,98,30.17,7.0,South,3.5,-,N/A,,Clear,170,2012-11-09 04:55:00
11:15 PM,36.9,36.0,97,30.18,7.0,South,3.5,-,N/A,,Clear,180,2012-11-09 05:15:00
11:35 PM,37.6,36.5,96,30.18,7.0,South,3.5,-,N/A,,Clear,180,2012-11-09 05:35:00
11:55 PM,37.4,36.9,98,30.18,7.0,Calm,Calm,-,N/A,,Clear,0,2012-11-09 05:55:00